Погода Ростов-на-Дону

Погода Ростов-на-Дону : погода сейчас, прогноз погоды и архив. Всё, что Вы хотите узнать о погоде Ростов-на-Дону!

Хотите узнать прогноз погоды в Ростове-На-Дону? Тогда Вам сюда: Погода в Ростове-На-Дону

Поиск расширенной информации на нашем сайте:

Другие новости

Новости СМИ2

Главная страница сайта

Новости сайта

03.07.2017

Напоминаем, что на нашем специализированном сайте Метеоцентр.Азия вы можете получить высокодетализированные автоматические прогнозы погоды по пунктам России, СНГ и мира в авиационном формате (включающие направление и скорость ветра, видимость, явления погоды, количество и форму облачности, нижнюю и верхнюю границу облачности).


Погода Ростов-на-Дону - сегодня

Время (UTC), дата Ветер
(°,м/с) 
Видим.   Явления Облачность Т
(°С)
Тd
(°С)
f(%) Тe
(°С)
Pmin
(гПа)
dP
(гПа)
Po
(мм)
O2
(г/м3)
Тmin Tmax R s Состояние
почвы
12 20.10.17 290 (З) 4300 м  дымка{морось, туман}  10/10 270 м 
[St]
+12.5 +10.8 89 +15  1018.9  -0.2  757  290           
15 20.10.17 340 (С) 1500 м  слаб. морось  10/10 120 м 
[St]
+12.2 +10.7 91 +15  1019.2  0.3  758  290    +12.8  0.0     
18 20.10.17 220 (ЮЗ) 1500 м  дымка{морось}  10/10 100 м 
[St]
+11.9 +10.8 93 +14  1019.2  758  291           
21 20.10.17 220 (ЮЗ) 2100 м  дымка  10/10 210 м 
[St]
+11.8 +10.7 93 +14  1018.4  -0.8  757  290           
00 21.10.17 300 (СЗ) 4100 м  дымка  10/6 300 м средняя 
[Sc|Ac trans]
+12.1 +10.6 91 +14  1017.9  -0.4  757  290           
03 21.10.17 230 (ЮЗ) 2700 м  дымка  10/8 240 м 
[Sc]
+11.5 +10.3 92 +14  1017.5  -0.4  756  291  +11.5         
06 21.10.17 230 (ЮЗ) 3000 м  слаб. дождь  10/8 240 м средняя 
[Sc|Ac und]
+12.1 +10.8 92 +15  1017.4  -0.1  756  290  +11.4         
09 21.10.17 080 (В) 0800 м  туман{дождь}  ?/?  
+10.2 +9.3 94 +10  1017.3  756  292           
12 21.10.17 080 (В) 5000 м  дымка{дождь, туман}  10/10 100 м 
[St]
+10.8 +9.6 92 +11  1015.9  -1.4  755  291           
15 21.10.17 090 (В) 2400 м  дымка  10/8 60 м средняя 
[Sc|Ac und]
+9.9 +8.9 93 +9  1015.5  -0.3  755  292    +12.2  0.0     
18 21.10.17 090 (В) 2400 м  в посл. час туман  10/10 100 м 
[St]
+9.6 +8.7 94 +9  1015  -0.5  755  292           
21 21.10.17 080 (В) 0200 м  туман  ?/?  
+9.3 +8.5 95 +9  1013.6  -1.3  753  292           
00 22.10.17 060 (СВ) 0200 м  туман{дождь}  ?/?  
+8.7 +8 95 +9  1012  -1.6  752  292           
03 22.10.17 110 (В) 0100 м  туман  ?/?  
+8.5 +7.9 96 +10  1011.1  -0.8  752  292  +8.5    0.0     
06 22.10.17 070 (В) 0300 м  слаб. дождь{туман}  ?/?  
+9.2 +8.7 97 +9  1011  -0.1  752  291           
09 22.10.17 070 (В) 4400 м  слаб. ливневой дождь  10/6 60 м кучево-дожд., средняя 
[Cb calv|Ac und]
+8.9 +8.4 97 +8  1010.5  -0.5  751  292           
12 22.10.17 050 (СВ) 6000 м  слаб. ливневой дождь  10/8 240 м кучево-дожд., средняя 
[Cb calv|Ac und]
+7.9 +7.2 95 +6  1010.9  0.3  751  293           
15 22.10.17 050 (СВ) 5{10}  8000 м  дым{ливн. осадки}  10/5 330 м кучево-дожд., средняя 
[Cb calv|Ac und]
+7 +5.6 91 +5  1013  753  295    +9.5     
18 22.10.17 020 (С) 4{10}  8000 м  дым{ливн. осадки}  9/5 330 м средняя 
[Sc|Ac trans]
+6.6 +4.6 87 +5  1015.5  2.4  755  296           
21 22.10.17 020 (С) 8000 м    9/5 1000 м средняя 
[Sc|Ac trans]
+5.9 +3.9 87 +4  1017.4  1.9  756  298           
00 23.10.17 010 (С) 8000 м    8/5 300 м средняя 
[Sc|Ac trans]
+4.6 +2.6 87 +3  1019  1.4  757  300           
03 23.10.17 050 (СВ) 6000 м  дымка  5/3 200 м средняя 
[Frnb|Ac trans]
+1.9 +0.5 90 1020.9  1.8  759  303  +1.9         
06 23.10.17 070 (В) 7000 м  дымка  4/3 200 м средняя 
[St|Ac trans]
+3.8 +1.4 84 +2  1021.9  1.1  759  302  +1.2         
09 23.10.17 100 (В) 10 км    6/6 300 м 
[Sc]
+5.9 +1.2 72 +4  1022.2  0.3  760  299           
12 23.10.17 080 (В) 10 км    8/3 600 м средняя, верхняя 
[Sc|Ac trans|Ci fib]
+6 +1.1 71 +4  1021.5  -0.7  759  299           
Время (UTC), дата Ветер
(°,м/с) 
Видим.   Явления Облачность Т
(°С)
Тd
(°С)
f(%) Тe
(°С)
Pmin
(гПа)
dP
(гПа)
Po
(мм)
O2
(г/м3)
Тmin Tmax R s Состояние
почвы

Для получения пояснительной информации подведите курсор к названию столбца.

ПОГОДА Ростов-на-Дону - архив

Всё, что Вы хотите узнать о погоде Ростов-на-Дону - удобно и подробно!

Выберите нужную дату (начиная с 1 января 2015* года) и нажмите кнопку "Найти".
Будут отображены архивные сводки погоды по пункту Ростов-на-Дону, начиная с указанной даты.


Отображать данные в формате CSV (для использования в таблицах Excel)


Внимание! Наш архив погоды предназначен исключительно для личного некоммерческого использования в познавательных целях. Если Вам необходимы официальные справки о состоянии погоды (для производственных, юридических, коммерческих и т.п. целей), обращайтесь в органы Росгидромета.

*Примечание: данная дата относится к архиву по метеостанциям СССР (Россия, СНГ, Балтия).
Архив по метеостанциям Зарубежной Европы и Азии (кроме Китая) хранится 10 дней, по другим регионам земного шара (Китай, Африка, Америка, Австралия, Океания) - 1 день.

Ростов-на-Дону - район местоположения метеостанции


Название, широта, долгота, высота метеостанции:
Ростов-на-Дону (город) 47.3°ш. 39.8°д. 75 м над ур. моря [Российская Федерация]

Дополнительная информация

В oтличие oт бoльшинства пoгoдных сайтoв мы публикуем пoдрoбную метеoинфoрмацию в детальнoм прoфессиoнальнoм фoрмате.

Характеристики температуры и влажнoсти вoздуха измеряются на высoте 2 м в тени вдали oт зданий и деревьев.
Скoрoсть ветра измеряется на высoте 10 м (на урoвне рoста челoвека скoрoсть ветра ниже в 1.5-2 раза). Если метеoстанция нахoдится в гoрoде или в лесу, тo скoрoсть ветра занижена на 2-4 м/с пo сравнению с oткрытым местoм. Скoрoсть ветра над акватoриями крупных рек и oзёр, а также на вершинах хoлмoв на 2-5 м/с выше, чем в oбычных услoвиях.
Атмoсфернoе давление в разных тoчках местнoсти мoжет значительнo oтличаться oт давления на метеoстанции, в зависимoсти oт услoвий рельефа (при пoдъёме на 10 м давление пoнижается примернo на 1 мм рт.ст.).